Mackall AAF, NC

3:23 AM EDT on March 29, 2017 (GMT -0400)
Mackall Army Air Field

Weather History for KHFF - November, 2013

Change the Weather History Date:

Friday, November 22, 2013

  Actual Average Record
Temperature  
Mean Temperature 60 °F -  
Max Temperature 69 °F 63 °F 77 °F (2011)
Min Temperature 50 °F 38 °F 17 °F (2008)
Degree Days  
Heating Degree Days 6    
Growing Degree Days 10 (Base 50)    
Moisture  
Dew Point 56 °F    
Average Humidity 84    
Maximum Humidity 95    
Minimum Humidity 68    
Precipitation  
Precipitation 0.00 in - - ()
Sea Level Pressure  
Sea Level Pressure 30.27 in    
Wind  
Wind Speed 4 mph (WSW)    
Max Wind Speed 10 mph    
Max Gust Speed 16 mph    
Visibility 12 miles    
Events Rain    
Averages and records for this station are not official NWS values.
T = Trace of Precipitation, MM = Missing Value Source: NWS Daily Summary

Daily Weather History Graph

Daily Weather History Graph

Search for Another Location

Airport or City:

Trip Planner

Search our weather history database for the weather conditions in past years. The results will help you decide how hot, cold, wet, or windy it might be!

Date:

Astronomy

Nov. 22, 2013 Rise Set
Actual Time 6:59 AM EST 5:08 PM EST
Civil Twilight 6:32 AM EST 5:35 PM EST
Nautical Twilight 6:01 AM EST 6:06 PM EST
Astronomical Twilight 5:31 AM EST 6:37 PM EST
Moon 9:36 PM EST (11/22) 10:44 AM EST (11/22)
Length of Visible Light 11h 03m
Length of Day
10h 09m
Waning Gibbous, 78% of the Moon is Illuminated
Nov 22
Waning Gibbous
Nov 25
Last Quarter
Dec 2
New
Dec 9
First Quarter
Dec 17
Full

Hourly Weather History & Observations

Time (EST) Temp. Dew Point Humidity Pressure Visibility Wind Dir Wind Speed Gust Speed Precip Events Conditions
12:56 AM 53.2 °F 48.4 °F 84% 30.40 in 12.0 mi NNW 2.3 mph - N/A   Overcast
1:16 AM 53.6 °F 48.2 °F 82% 30.39 in 12.0 mi North 3.5 mph - N/A Rain Light Rain
1:56 AM 52.2 °F 49.1 °F 89% 30.39 in 12.0 mi NE 4.6 mph - N/A Rain Light Rain Showers
2:38 AM 51.8 °F 48.2 °F 88% 30.36 in 12.0 mi ENE 2.3 mph - N/A   Mostly Cloudy
2:56 AM 50.9 °F 48.4 °F 91% 30.37 in 12.0 mi West 2.3 mph - N/A   Mostly Cloudy
3:56 AM 50.7 °F 49.3 °F 95% 30.36 in 12.0 mi NW 1.2 mph - N/A   Mostly Cloudy
4:56 AM 51.6 °F 49.3 °F 92% 30.36 in 12.0 mi North 4.6 mph - N/A   Overcast
5:56 AM 51.8 °F 49.1 °F 90% 30.35 in 12.0 mi East 1.2 mph - N/A   Mostly Cloudy
6:48 AM 51.8 °F 50.0 °F 94% 30.34 in 12.0 mi Variable 1.2 mph - N/A   Mostly Cloudy
6:56 AM 52.3 °F 49.5 °F 90% 30.35 in 12.0 mi East 2.3 mph - N/A   Mostly Cloudy
7:06 AM 51.8 °F 50.0 °F 94% 30.34 in 12.0 mi NNW 3.5 mph - N/A   Mostly Cloudy
7:23 AM 51.8 °F 50.0 °F 94% 30.34 in 12.0 mi ENE 1.2 mph - N/A   Mostly Cloudy
7:56 AM 52.7 °F 49.6 °F 89% 30.35 in 12.0 mi NW 3.5 mph - N/A   Overcast
8:01 AM 53.6 °F 50.0 °F 88% 30.34 in 12.0 mi WNW 3.5 mph - N/A   Overcast
8:18 AM 53.6 °F 50.0 °F 88% 30.33 in 12.0 mi Variable 2.3 mph - N/A   Mostly Cloudy
8:56 AM 57.7 °F 52.7 °F 83% 30.34 in 12.0 mi South 2.3 mph - N/A   Mostly Cloudy
9:28 AM 60.8 °F 57.2 °F 88% 30.33 in 12.0 mi SSW 4.6 mph - N/A   Scattered Clouds
9:33 AM 62.6 °F 55.4 °F 77% 30.33 in 12.0 mi WSW 4.6 mph - N/A   Mostly Cloudy
9:38 AM 62.6 °F 55.4 °F 77% 30.34 in 12.0 mi SW 3.5 mph - N/A   Mostly Cloudy
9:56 AM 61.7 °F 55.8 °F 81% 30.34 in 12.0 mi SSW 3.5 mph - N/A   Mostly Cloudy
10:37 AM 64.4 °F 57.2 °F 77% 30.33 in 12.0 mi Variable 2.3 mph - N/A   Mostly Cloudy
10:43 AM 64.4 °F 57.2 °F 77% 30.32 in 12.0 mi Variable 2.3 mph - N/A   Mostly Cloudy
10:56 AM 65.5 °F 57.4 °F 75% 30.33 in 12.0 mi SSW 5.8 mph - N/A   Mostly Cloudy
11:32 AM 68.0 °F 59.0 °F 73% 30.29 in 12.0 mi Variable 6.9 mph - N/A   Mostly Cloudy
11:48 AM 69.8 °F 59.0 °F 68% 30.29 in 12.0 mi West 9.2 mph - N/A   Mostly Cloudy
11:56 AM 68.2 °F 58.3 °F 71% 30.29 in 12.0 mi WSW 6.9 mph - N/A   Mostly Cloudy
12:38 PM 69.8 °F 59.0 °F 68% 30.26 in 12.0 mi WSW 10.4 mph - N/A   Mostly Cloudy
12:48 PM 68.0 °F 59.0 °F 73% 30.26 in 12.0 mi West 10.4 mph - N/A   Mostly Cloudy
12:56 PM 68.5 °F 59.2 °F 72% 30.27 in 12.0 mi WSW 9.2 mph - N/A   Mostly Cloudy
12:59 PM 68.0 °F 59.0 °F 73% 30.26 in 12.0 mi West 10.4 mph 16.1 mph N/A Rain Light Rain
1:38 PM 64.4 °F 62.6 °F 94% 30.25 in 12.0 mi WSW 6.9 mph - N/A   Mostly Cloudy
1:39 PM 64.4 °F 62.6 °F 94% 30.25 in 8.0 mi WSW 5.8 mph - N/A Rain Light Rain Showers
1:56 PM 65.3 °F 63.0 °F 92% 30.25 in 11.0 mi WSW 5.8 mph - N/A Rain Light Rain Showers
2:03 PM 66.2 °F 62.6 °F 88% 30.23 in 12.0 mi WSW 4.6 mph - N/A   Mostly Cloudy
2:09 PM 66.2 °F 62.6 °F 88% 30.23 in 12.0 mi WSW 6.9 mph - N/A   Mostly Cloudy
2:14 PM 66.2 °F 62.6 °F 88% 30.23 in 12.0 mi WSW 5.8 mph - N/A   Mostly Cloudy
2:19 PM 66.2 °F 62.6 °F 88% 30.23 in 12.0 mi SW 4.6 mph - N/A   Mostly Cloudy
2:56 PM 68.4 °F 60.3 °F 75% 30.22 in 12.0 mi SW 8.1 mph 13.8 mph N/A   Scattered Clouds
3:06 PM 68.0 °F 60.8 °F 78% 30.21 in 12.0 mi WSW 4.6 mph - N/A   Mostly Cloudy
3:22 PM 68.0 °F 60.8 °F 78% 30.21 in 12.0 mi WSW 4.6 mph - N/A   Mostly Cloudy
3:56 PM 69.3 °F 59.5 °F 71% 30.21 in 12.0 mi SW 3.5 mph - N/A   Mostly Cloudy
4:06 PM 68.0 °F 59.0 °F 73% 30.20 in 12.0 mi WSW 5.8 mph - N/A   Mostly Cloudy
4:56 PM 66.7 °F 59.4 °F 77% 30.20 in 12.0 mi West 4.6 mph - N/A   Mostly Cloudy
5:56 PM 60.6 °F 58.5 °F 93% 30.19 in 12.0 mi SSW 3.5 mph - N/A   Scattered Clouds
6:56 PM 60.3 °F 58.5 °F 94% 30.17 in 12.0 mi SSW 4.6 mph - N/A   Mostly Cloudy
7:56 PM 62.6 °F 59.4 °F 89% 30.17 in 12.0 mi SSW 4.6 mph - N/A   Mostly Cloudy
8:56 PM 63.3 °F 59.0 °F 86% 30.16 in 12.0 mi SW 5.8 mph - N/A   Mostly Cloudy
9:56 PM 63.7 °F 58.8 °F 84% 30.14 in 12.0 mi SW 5.8 mph - N/A   Mostly Cloudy
10:56 PM 63.7 °F 58.8 °F 84% 30.14 in 12.0 mi WSW 5.8 mph - N/A   Mostly Cloudy
11:36 PM 62.6 °F 59.0 °F 88% 30.13 in 12.0 mi WSW 5.8 mph - N/A Rain Light Rain
11:54 PM 62.6 °F 59.0 °F 88% 30.12 in 12.0 mi WSW 5.8 mph - N/A   Mostly Cloudy
11:56 PM 61.9 °F 58.8 °F 90% 30.12 in 12.0 mi SW 5.8 mph - N/A   Mostly Cloudy